Wind_Speed
41 41 43 44 46 47 47 46 46 45 44 42 42 40 38 38 39 40 41 42 42 41 40 40 39 38 38 38 38 38 39 40 41 42 42 43 43 44 45 45 45 46 45 45
38 38 40 43 45 46 47 46 45 44 43 42 41 41 39 38 38 39 40 41 41 41 41 40 40 39 39 39 39 39 40 41 42 43 43 44 45 46 46 47 47 47 47 47
35 36 39 41 43 45 46 45 44 43 42 42 41 41 40 39 39 39 39 40 40 41 41 41 41 40 40 40 40 40 41 41 42 43 44 45 46 47 48 48 48 49 49 50
33 35 37 39 41 42 43 44 44 43 42 42 42 41 40 39 38 39 39 39 40 40 41 41 41 41 40 40 41 41 42 42 43 44 45 45 46 47 48 49 50 51 52 53
31 32 34 35 37 39 40 41 41 42 42 42 41 40 40 38 38 38 38 39 39 40 40 40 40 40 40 41 41 42 42 43 44 44 45 46 47 48 49 50 51 53 54 55
29 29 31 32 33 35 36 38 38 39 40 40 38 38 38 37 36 36 36 37 38 38 38 39 39 39 40 40 41 41 42 42 43 44 45 46 48 49 50 52 53 54 55 56
28 29 29 30 30 31 32 34 35 36 37 37 36 36 36 34 34 34 34 34 34 35 35 36 36 37 38 38 39 39 40 41 42 44 45 47 48 50 52 54 55 56 58 59
27 28 29 29 29 28 29 32 32 33 33 33 32 33 32 31 31 31 31 31 31 31 32 32 33 34 35 36 36 37 39 41 42 44 47 49 51 53 55 57 59 60 62 62
25 26 27 28 28 28 28 29 29 30 30 29 29 29 29 28 28 28 28 28 28 29 29 30 31 32 33 34 35 37 39 41 43 45 48 50 53 55 57 59 62 64 65 66
23 25 26 26 27 27 26 26 27 27 26 25 25 25 25 25 25 25 25 25 26 27 28 28 29 30 32 33 34 36 38 40 43 45 47 50 52 55 57 60 63 65 67 68
21 23 24 24 25 25 25 26 26 25 25 24 24 24 24 24 23 23 23 24 25 26 26 27 28 30 31 32 33 35 37 39 41 43 46 48 51 53 56 58 60 62 64 65
19 20 21 21 22 23 24 24 25 24 22 22 22 23 23 23 23 22 22 23 24 25 26 27 28 28 29 31 32 33 34 36 39 41 43 45 47 49 50 52 53 55 56 58
19 19 19 19 20 21 22 22 22 21 21 21 22 22 22 21 21 21 22 23 24 24 25 26 26 27 28 28 29 30 32 34 35 37 39 40 42 44 44 45 46 46 47 48
17 17 17 16 16 18 19 20 20 20 20 20 21 21 20 19 20 21 21 22 23 23 24 24 24 24 25 25 26 27 28 30 31 32 33 35 36 37 38 38 37 37 37 37
16 16 16 16 15 17 17 18 18 18 19 19 19 19 19 18 18 19 19 20 21 21 21 21 21 22 23 23 23 24 25 26 26 27 28 29 30 31 31 30 29 27 27 27
16 16 16 16 16 16 16 17 17 17 17 18 18 17 17 16 17 17 17 17 18 18 18 18 19 20 20 20 21 21 22 22 22 23 24 25 26 26 25 24 22 20 18 18
16 16 16 16 16 16 16 16 16 16 17 17 17 16 16 16 16 15 15 15 15 15 16 16 17 18 18 18 19 19 19 19 19 20 21 21 22 21 21 19 17 15 13 11
17 17 16 16 16 16 15 16 16 16 16 16 16 16 16 16 15 14 14 14 14 14 15 16 16 16 17 17 18 18 17 16 16 17 18 18 18 18 18 16 15 13 10 8
17 17 17 17 16 16 16 16 16 16 16 16 16 16 16 15 15 14 13 13 14 14 15 15 15 15 16 16 16 16 15 14 15 15 15 15 15 15 15 14 13 11 9 8
17 17 17 18 17 17 16 16 16 16 16 16 16 16 16 15 14 13 13 13 13 14 14 14 15 15 15 15 15 15 14 13 13 12 13 13 13 13 13 12 11 10 9 9
18 18 18 18 18 17 17 17 17 17 16 16 15 16 16 15 14 13 12 12 12 13 13 13 14 14 14 14 14 13 12 12 12 12 12 12 13 12 12 12 11 11 10 9
18 18 18 18 18 18 17 17 17 17 17 16 16 15 15 15 15 14 13 12 12 12 13 13 13 14 14 13 13 12 11 11 11 11 11 12 12 12 13 12 12 11 11 11
19 19 19 19 18 18 18 17 18 18 18 18 17 16 16 16 15 14 13 12 12 12 13 13 13 13 13 12 12 11 11 11 11 11 11 11 12 12 12 12 12 12 13 13
20 20 19 19 19 19 18 18 18 19 19 19 19 18 17 16 16 15 14 13 13 13 13 13 13 12 12 12 12 11 11 11 11 12 12 12 12 12 13 13 14 14 15 15
20 20 20 20 20 20 20 20 19 19 20 20 20 19 18 17 17 16 15 14 14 13 13 13 13 12 12 12 13 13 13 13 12 12 12 13 13 13 14 15 15 16 17 17
20 20 20 20 21 21 21 21 20 20 20 21 21 20 19 19 18 17 17 16 15 15 14 14 13 13 13 13 13 14 14 14 14 14 14 14 15 16 16 17 17 18 19 20
Wind_Direction
202 204 205 206 208 210 212 215 218 220 222 224 225 226 228 231 233 235 238 241 243 245 247 248 249 250 252 254 256 259 261 262 264 265 266 267 268 268 268 269 269 269 269 269
200 202 203 204 207 209 211 214 217 220 222 225 226 228 230 231 234 236 238 241 244 246 248 250 252 253 255 257 259 260 261 262 264 265 266 267 267 268 269 270 270 270 270 270
199 201 201 203 205 208 211 214 217 220 222 225 227 230 232 233 235 237 239 242 244 247 250 252 255 257 258 260 262 263 264 264 265 265 266 267 267 268 269 269 269 269 268 267
197 198 199 202 204 207 211 214 218 220 223 225 227 232 233 235 236 238 240 243 246 249 252 254 257 259 261 263 264 265 266 266 266 267 267 268 268 269 269 268 267 267 267 267
193 195 196 200 203 207 210 213 217 221 225 227 229 234 236 238 239 240 242 244 247 250 253 256 259 261 263 264 265 267 267 268 269 269 269 269 269 269 268 268 267 267 266 266
191 193 194 197 200 205 209 212 217 221 225 229 230 235 238 239 241 242 244 246 248 250 253 256 259 261 263 265 267 268 269 270 271 271 272 271 271 271 270 269 268 267 266 265
188 191 194 194 197 202 206 210 215 219 224 228 230 234 238 239 241 242 244 246 248 250 253 256 258 261 263 265 267 269 271 273 274 275 275 275 275 274 273 272 270 269 267 266
186 189 191 193 198 202 206 209 214 218 223 227 229 232 236 237 238 239 242 244 247 249 252 255 257 261 264 267 269 272 274 276 277 278 279 279 278 278 277 275 273 272 270 268
188 191 193 195 200 203 206 208 212 217 221 223 225 229 231 233 234 236 239 242 245 248 251 254 258 262 266 269 273 275 278 279 281 282 282 282 282 281 279 277 276 273 272 269
192 194 196 199 204 206 207 209 210 213 216 218 221 223 226 228 230 232 235 238 243 247 252 256 261 265 269 272 275 278 280 282 283 285 285 285 284 283 282 280 278 276 273 271
196 199 201 205 208 209 208 208 210 212 213 215 216 218 220 223 225 228 232 238 244 250 255 260 265 269 272 275 278 280 282 284 286 287 288 288 287 286 285 283 281 278 275 272
199 201 203 207 210 212 211 210 210 211 210 212 214 216 217 220 224 229 235 241 247 252 258 263 267 270 274 277 280 283 286 288 291 292 292 292 291 290 289 287 285 281 277 272
198 200 202 206 209 210 211 210 210 209 208 209 212 215 218 222 227 233 239 245 250 255 259 263 267 271 275 279 282 286 290 293 295 296 298 297 297 296 295 293 290 285 280 274
194 195 199 202 205 207 207 208 207 207 206 209 214 219 222 226 231 237 242 248 252 256 260 263 268 273 276 281 285 289 294 298 300 303 304 305 305 304 303 301 296 290 283 277
192 194 196 198 200 202 203 204 203 204 206 211 217 224 227 230 236 241 246 249 253 256 260 265 269 274 278 283 286 291 296 302 306 309 312 313 314 313 311 309 304 297 288 279
195 196 197 199 201 201 202 203 203 206 211 218 224 231 234 238 242 245 248 251 254 257 262 267 271 275 281 284 287 292 298 304 309 314 318 319 320 321 320 317 316 312 299 284
200 201 202 202 204 205 206 207 209 213 219 224 230 236 239 242 243 246 249 253 257 260 266 270 274 280 283 285 289 294 301 306 311 317 321 324 326 328 329 328 326 322 315 301
206 207 207 208 210 213 212 216 218 222 226 230 234 238 239 240 241 245 249 254 259 264 269 272 277 282 286 286 289 293 299 306 313 319 324 329 333 334 335 336 336 331 325 318
211 213 214 215 217 218 220 223 225 228 230 232 235 236 236 237 241 245 251 258 263 266 269 274 278 283 289 288 290 291 297 304 311 319 326 332 339 342 342 341 343 342 338 341
217 218 219 221 224 227 226 229 231 233 235 233 233 233 232 235 239 245 252 259 263 266 271 276 281 285 290 292 291 291 293 299 307 317 326 334 339 342 345 348 349 351 349 346
222 222 223 226 229 231 231 233 236 236 235 232 231 231 232 234 238 243 252 259 265 270 273 278 283 285 288 292 293 293 294 297 304 311 318 326 333 338 345 349 352 351 346 341
226 226 227 230 232 233 233 235 236 236 234 231 231 232 233 235 238 244 251 259 266 272 276 280 285 287 289 290 292 294 296 300 304 309 314 320 327 333 337 340 340 339 337 332
231 231 233 234 235 235 236 237 236 235 234 232 233 234 235 237 240 246 253 260 266 272 277 281 285 287 289 290 291 294 298 302 304 307 312 317 321 325 329 331 333 333 331 329
236 236 236 237 237 238 239 238 237 236 235 235 235 236 237 240 243 248 254 260 267 273 277 280 283 286 286 287 288 291 295 298 299 302 307 312 315 319 322 325 327 327 327 325
237 239 239 239 240 240 240 239 239 238 237 236 236 237 240 243 247 251 256 261 266 272 276 279 280 283 283 283 284 286 289 292 295 299 303 308 312 316 319 321 323 324 323 322
239 239 240 240 241 242 241 241 240 239 238 237 237 240 244 247 250 254 257 261 266 269 273 276 278 280 282 282 283 284 285 287 291 296 301 305 309 312 314 317 318 319 320 320
Height
5649 5658 5666 5676 5684 5692 5700 5707 5713 5720 5727 5733 5739 5745 5750 5752 5757 5761 5764 5768 5772 5776 5780 5783 5786 5789 5791 5793 5795 5796 5796 5797 5796 5797 5797 5797 5796 5796 5796 5795 5795 5794 5794 5794
5648 5655 5663 5670 5677 5686 5693 5700 5707 5714 5721 5727 5733 5738 5742 5746 5751 5755 5758 5762 5765 5769 5772 5775 5778 5781 5783 5785 5786 5787 5788 5788 5788 5788 5788 5788 5787 5787 5787 5786 5785 5785 5784 5784
5645 5653 5659 5666 5673 5681 5689 5696 5702 5709 5715 5721 5727 5731 5735 5740 5744 5749 5752 5755 5759 5762 5765 5767 5770 5772 5774 5776 5777 5778 5779 5779 5779 5779 5779 5778 5778 5778 5777 5776 5776 5774 5773 5772
5642 5648 5655 5662 5670 5677 5684 5690 5697 5703 5710 5715 5721 5724 5729 5733 5738 5742 5746 5749 5752 5755 5757 5760 5762 5764 5766 5767 5768 5769 5769 5769 5769 5769 5769 5768 5768 5768 5767 5765 5764 5763 5761 5761
5640 5646 5653 5660 5667 5673 5679 5685 5692 5698 5703 5709 5714 5718 5723 5727 5732 5736 5739 5742 5745 5747 5750 5752 5754 5755 5757 5758 5758 5759 5759 5758 5758 5758 5758 5757 5757 5756 5755 5753 5752 5751 5750 5749
5639 5644 5651 5657 5663 5669 5675 5681 5687 5692 5697 5703 5708 5712 5717 5721 5725 5729 5732 5735 5737 5740 5742 5744 5745 5747 5748 5748 5749 5749 5748 5748 5748 5747 5746 5746 5745 5743 5742 5741 5739 5738 5736 5736
5638 5643 5649 5655 5660 5666 5671 5678 5683 5687 5692 5697 5702 5706 5710 5714 5718 5721 5725 5727 5730 5732 5734 5736 5737 5738 5739 5739 5739 5739 5738 5738 5737 5736 5734 5733 5732 5730 5728 5726 5725 5723 5722 5721
5637 5643 5648 5653 5658 5663 5668 5673 5679 5684 5688 5692 5696 5699 5704 5708 5711 5714 5717 5720 5722 5724 5726 5727 5728 5729 5730 5730 5730 5729 5729 5727 5726 5724 5722 5720 5718 5716 5714 5711 5709 5707 5705 5704
5637 5642 5647 5651 5656 5660 5664 5669 5674 5679 5682 5686 5690 5694 5698 5701 5704 5707 5710 5713 5715 5717 5718 5719 5720 5721 5721 5721 5721 5720 5719 5717 5715 5713 5710 5707 5704 5701 5698 5695 5691 5688 5686 5684
5637 5641 5645 5649 5653 5657 5662 5665 5670 5674 5678 5681 5685 5688 5692 5695 5698 5701 5704 5706 5708 5709 5711 5712 5712 5713 5713 5713 5712 5711 5709 5707 5704 5701 5698 5694 5690 5686 5682 5677 5673 5669 5666 5663
5637 5641 5644 5648 5651 5655 5659 5663 5666 5670 5674 5678 5681 5686 5687 5690 5693 5696 5698 5700 5701 5703 5704 5704 5705 5705 5705 5704 5703 5702 5700 5697 5694 5690 5686 5682 5676 5671 5665 5660 5654 5650 5646 5643
5636 5640 5642 5646 5649 5652 5656 5659 5663 5667 5671 5674 5677 5683 5682 5685 5688 5690 5692 5694 5695 5696 5697 5697 5698 5697 5697 5696 5694 5693 5690 5687 5684 5679 5674 5669 5663 5656 5650 5643 5637 5631 5627 5624
5635 5639 5642 5644 5649 5651 5653 5656 5660 5663 5667 5670 5673 5679 5678 5681 5683 5686 5687 5688 5689 5690 5691 5691 5691 5690 5689 5688 5686 5684 5681 5678 5674 5669 5663 5657 5650 5643 5636 5628 5621 5615 5611 5608
5634 5637 5641 5644 5646 5648 5651 5654 5657 5660 5663 5666 5669 5672 5674 5677 5679 5680 5682 5683 5683 5684 5684 5684 5684 5683 5682 5680 5678 5676 5673 5669 5664 5659 5653 5647 5640 5632 5624 5616 5609 5604 5599 5597
5633 5636 5638 5641 5644 5646 5649 5652 5654 5658 5660 5663 5665 5667 5670 5672 5674 5675 5676 5677 5677 5678 5678 5677 5677 5676 5675 5673 5671 5668 5665 5661 5656 5651 5645 5638 5631 5624 5616 5609 5602 5596 5592 5589
5631 5634 5637 5639 5642 5644 5647 5649 5652 5655 5657 5659 5661 5663 5665 5667 5668 5670 5670 5671 5671 5672 5672 5671 5671 5670 5668 5666 5664 5661 5658 5654 5650 5644 5638 5632 5625 5618 5611 5604 5598 5592 5588 5585
5630 5633 5635 5638 5640 5642 5645 5647 5650 5652 5654 5656 5657 5660 5661 5662 5663 5664 5665 5666 5666 5666 5666 5666 5665 5663 5662 5660 5658 5655 5652 5648 5644 5639 5633 5628 5621 5615 5608 5602 5596 5591 5587 5584
5628 5630 5633 5635 5638 5640 5645 5644 5646 5648 5650 5652 5653 5655 5657 5658 5659 5660 5660 5661 5661 5661 5661 5660 5659 5658 5656 5654 5652 5649 5646 5642 5638 5634 5629 5624 5618 5612 5607 5601 5596 5591 5588 5585
5626 5628 5630 5633 5634 5637 5640 5641 5642 5645 5646 5648 5649 5651 5652 5653 5654 5656 5656 5656 5656 5656 5656 5655 5654 5652 5650 5648 5646 5644 5641 5638 5634 5630 5626 5621 5616 5611 5606 5601 5596 5592 5588 5586
5623 5625 5628 5629 5631 5634 5637 5637 5638 5642 5642 5644 5645 5647 5648 5649 5651 5652 5652 5652 5652 5651 5651 5650 5648 5647 5645 5643 5641 5638 5636 5633 5630 5626 5623 5619 5614 5610 5605 5601 5597 5593 5590 5587
5619 5621 5623 5625 5627 5630 5632 5633 5635 5638 5640 5640 5641 5642 5644 5645 5647 5647 5647 5647 5647 5646 5646 5645 5643 5642 5640 5638 5636 5634 5631 5629 5626 5623 5620 5617 5613 5609 5605 5601 5597 5594 5591 5588
5615 5618 5619 5621 5623 5627 5627 5628 5631 5633 5634 5635 5637 5638 5639 5641 5642 5642 5643 5643 5642 5642 5641 5640 5639 5637 5636 5634 5632 5630 5628 5625 5623 5620 5617 5614 5611 5607 5604 5600 5597 5594 5591 5588
5611 5614 5615 5618 5621 5621 5622 5624 5626 5627 5629 5630 5632 5634 5635 5636 5637 5638 5638 5638 5638 5637 5636 5635 5634 5633 5631 5629 5628 5626 5624 5622 5620 5617 5615 5612 5609 5606 5602 5599 5596 5593 5590 5588
5607 5608 5611 5612 5614 5616 5617 5619 5621 5622 5624 5626 5627 5629 5630 5631 5632 5633 5633 5633 5633 5633 5632 5631 5630 5628 5627 5626 5624 5622 5621 5619 5617 5614 5612 5609 5606 5603 5600 5597 5594 5591 5589 5586
5602 5603 5605 5607 5609 5610 5612 5614 5616 5617 5619 5621 5622 5624 5625 5627 5628 5628 5629 5629 5628 5628 5627 5626 5625 5624 5623 5622 5620 5619 5617 5615 5613 5611 5609 5606 5603 5601 5598 5595 5592 5589 5586 5583
5596 5598 5600 5602 5603 5605 5607 5608 5610 5612 5613 5615 5617 5619 5620 5621 5622 5623 5623 5623 5623 5623 5622 5622 5621 5620 5619 5617 5616 5615 5613 5611 5609 5607 5605 5602 5600 5597 5594 5591 5588 5585 5582 5579